KG1ZR Weather Reports


Display with metric or nautical units.
time (UTC)temp
F
wind
direction
speed
MPH
gust
MPH
rain 1hr
in
rain 24hr
in
rain mn
in
humidity
%
barometer
mb
20260831064026 52 281 0.0 0.0 0.01 0.20 0.01 58 1016.8
20260831062537 52 281 0.0 0.0 0.01 0.20 0.01 58 1016.9
20260831061536 53 281 0.0 0.0 0.00 0.19 0.00 57 1016.9
20260831060537 53 281 0.0 0.0 0.00 0.19 0.00 57 1016.8
20260831055534 53 281 0.0 0.0 0.00 0.19 0.00 57 1016.7
20260831054532 53 281 0.0 1.0 0.00 0.19 0.00 57 1016.6
20260831053529 54 281 0.0 2.0 0.00 0.19 0.00 57 1016.6
20260831052529 54 216 0.0 0.0 0.00 0.19 0.00 57 1016.5
20260831051528 54 216 0.0 0.0 0.00 0.19 0.00 57 1016.4
20260831050528 55 290 0.0 2.0 0.00 0.19 0.00 57 1016.5
20260831045529 55 290 0.0 2.0 0.00 0.19 0.00 57 1016.3
20260831044529 55 301 0.0 3.0 0.00 0.19 0.00 57 1016.3
20260831043528 56 271 1.0 4.0 0.00 0.19 0.00 57 1016.1
20260831043012 56 297 1.0 4.0 0.00 0.19 0.00 57 1016.2
20260831041529 56 287 1.0 2.0 0.00 0.19 0.00 57 1016.0
20260831040528 56 287 0.0 3.0 0.00 0.19 0.00 57 1015.9
20260831040002 56 313 0.0 2.0 0.00 0.19 0.19 58 1015.8
20260831034529 56 292 0.0 3.0 0.00 0.19 0.19 58 1015.7
20260831034007 57 281 1.0 4.0 0.00 0.19 0.19 58 1015.6
20260831032528 58 282 2.0 4.0 0.00 0.19 0.19 57 1015.6
20260831031529 58 236 2.0 4.0 0.01 0.19 0.19 57 1015.7
20260831030528 58 263 1.0 3.0 0.01 0.19 0.19 57 1015.7
20260831025529 58 290 0.0 2.0 0.01 0.19 0.19 58 1015.6
20260831024529 58 290 0.0 2.0 0.02 0.19 0.19 58 1015.5
20260831023530 58 290 0.0 2.0 0.02 0.19 0.19 59 1015.5
20260831022529 58 266 0.0 1.0 0.02 0.19 0.19 60 1015.2
20260831021529 58 266 0.0 2.0 0.02 0.18 0.18 61 1015.2
20260831020529 58 193 0.0 2.0 0.06 0.18 0.18 62 1014.9
20260831015528 58 305 0.0 1.0 0.10 0.18 0.17 63 1015.3
20260831014525 59 305 0.0 3.0 0.17 0.17 0.17 65 1015.4
20260831014452 59 305 0.0 3.0 0.17 0.17 0.17 66 1015.6
20260831012525 59 289 0.0 2.0 0.17 0.17 0.17 69 1015.7
20260831011525 60 289 1.0 3.0 0.16 0.16 0.15 71 1015.9
20260831010519 61 248 1.0 9.0 0.12 0.12 0.12 74 1016.3
20260831005519 64 286 2.0 9.0 0.08 0.08 0.08 75 1016.1
20260831004516 65 265 0.0 2.0 0.00 0.00 0.00 75 1015.3
20260831003518 64 54 0.0 0.0 0.00 0.00 0.00 73 1014.7
20260831002517 65 279 0.0 0.0 0.00 0.00 0.00 74 1014.3
20260831001518 66 279 0.0 1.0 0.00 0.00 0.00 75 1013.9
20260831000955 66 279 1.0 4.0 0.00 0.00 0.00 75 1013.8
20260831000004 66 279 1.0 4.0 0.00 0.00 0.00 75 1013.6
20260830234516 66 205 2.0 5.0 0.00 0.00 0.00 75 1013.4
20260830233518 66 201 1.0 5.0 0.00 0.00 0.00 75 1013.4
20260830232517 67 225 1.0 3.0 0.00 0.00 0.00 75 1013.4
20260830231517 67 289 1.0 6.0 0.00 0.00 0.00 75 1013.5
20260830230517 67 275 2.0 6.0 0.00 0.00 0.00 75 1013.4
20260830230003 67 196 2.0 5.0 0.00 0.00 0.00 75 1013.4
20260830224518 68 252 0.0 4.0 0.00 0.00 0.00 75 1013.3
20260830224003 69 277 1.0 3.0 0.00 0.00 0.00 74 1013.4
20260830222517 69 252 1.0 4.0 0.00 0.00 0.00 75 1013.2
20260830221511 69 219 2.0 5.0 0.00 0.00 0.00 74 1013.3
20260830220511 69 217 1.0 6.0 0.00 0.00 0.00 74 1013.3
20260830215511 69 232 2.0 6.0 0.00 0.00 0.00 73 1013.2
20260830214511 70 225 2.0 6.0 0.00 0.00 0.00 74 1013.3
20260830213512 70 260 2.0 7.0 0.00 0.00 0.00 73 1013.1
20260830212953 70 267 2.0 8.0 0.00 0.00 0.00 74 1013.1
20260830211509 70 205 3.0 8.0 0.00 0.00 0.00 73 1013.1
20260830210509 70 190 2.0 7.0 0.00 0.00 0.00 74 1013.2
20260830205509 70 265 2.0 9.0 0.00 0.00 0.00 73 1013.3
20260830204509 70 172 3.0 9.0 0.00 0.00 0.00 72 1013.2
20260830203509 70 286 4.0 12.0 0.00 0.00 0.00 73 1013.2
20260830202508 70 253 3.0 12.0 0.00 0.00 0.00 74 1013.2
20260830201509 70 275 2.0 7.0 0.00 0.00 0.00 74 1013.6
20260830200509 71 256 3.0 8.0 0.00 0.00 0.00 74 1013.6
20260830195509 71 213 2.0 8.0 0.00 0.00 0.00 74 1013.5
20260830194509 71 202 2.0 8.0 0.00 0.00 0.00 73 1013.5
20260830193508 71 268 3.0 8.0 0.00 0.00 0.00 74 1013.6
20260830192503 71 202 2.0 7.0 0.00 0.00 0.00 74 1013.8
20260830191501 70 266 2.0 9.0 0.00 0.00 0.00 74 1014.0
20260830190501 70 328 3.0 9.0 0.00 0.00 0.00 73 1014.0
20260830185501 70 211 2.0 8.0 0.00 0.00 0.00 74 1014.2
20260830184501 69 273 3.0 9.0 0.00 0.00 0.00 74 1014.3
20260830183501 70 231 2.0 9.0 0.00 0.00 0.00 74 1014.4
20260830183422 69 213 2.0 8.0 0.00 0.00 0.00 74 1014.6
20260830181500 69 298 1.0 6.0 0.00 0.00 0.00 74 1014.8
20260830180502 69 182 1.0 5.0 0.00 0.00 0.00 74 1014.9
20260830175501 69 239 0.0 5.0 0.00 0.00 0.00 74 1015.0
20260830174500 69 318 0.0 5.0 0.00 0.00 0.00 74 1015.0
20260830173501 69 190 0.0 5.0 0.00 0.00 0.00 74 1015.1
20260830172500 69 202 0.0 6.0 0.00 0.00 0.00 74 1015.2
20260830171501 69 298 1.0 6.0 0.00 0.00 0.00 74 1015.4
20260830170942 69 298 0.0 5.0 0.00 0.00 0.00 74 1015.3
20260830165501 70 240 0.0 3.0 0.00 0.00 0.00 74 1015.3
20260830164500 70 239 0.0 0.0 0.00 0.00 0.00 73 1015.3
20260830163501 70 208 0.0 6.0 0.00 0.00 0.00 72 1015.4
20260830162501 71 126 1.0 7.0 0.00 0.00 0.00 72 1015.4
20260830161500 71 232 0.0 5.0 0.00 0.00 0.00 72 1015.3
20260830160501 71 252 1.0 5.0 0.00 0.00 0.00 71 1015.5
20260830155501 71 267 0.0 4.0 0.00 0.00 0.00 71 1015.4
20260830154943 71 236 0.0 6.0 0.00 0.00 0.00 71 1015.7
20260830153501 70 232 1.0 6.0 0.00 0.00 0.00 72 1015.8
20260830152501 69 211 1.0 6.0 0.00 0.00 0.00 73 1016.0
20260830151501 68 256 0.0 5.0 0.00 0.00 0.00 74 1016.2
20260830150500 69 184 0.0 0.0 0.00 0.00 0.00 74 1016.2
20260830145501 69 290 0.0 0.0 0.00 0.00 0.00 73 1016.4
20260830144501 69 279 0.0 4.0 0.00 0.00 0.00 73 1016.5
20260830143501 69 183 0.0 6.0 0.00 0.00 0.00 72 1016.5
20260830142501 70 225 1.0 6.0 0.00 0.00 0.00 70 1016.7
20260830141938 71 246 0.0 6.0 0.00 0.00 0.00 70 1016.6
20260830140944 70 266 0.0 6.0 0.00 0.00 0.00 70 1016.5
20260830135502 69 198 0.0 0.0 0.00 0.00 0.00 72 1016.5
20260830134936 68 198 0.0 0.0 0.00 0.00 0.00 74 1016.9
20260830133501 68 202 0.0 0.0 0.00 0.00 0.00 73 1016.8
20260830132501 68 254 0.0 0.0 0.00 0.00 0.00 74 1016.8
20260830131501 67 175 0.0 0.0 0.00 0.00 0.00 74 1016.7
20260830130500 67 255 0.0 0.0 0.00 0.00 0.00 74 1016.6
20260830125501 66 244 0.0 0.0 0.00 0.00 0.00 74 1016.6
20260830124500 65 171 0.0 0.0 0.00 0.00 0.00 73 1016.8
20260830123500 63 185 0.0 0.0 0.00 0.00 0.00 71 1016.7
20260830122501 62 160 0.0 0.0 0.00 0.00 0.00 71 1016.7
20260830121501 62 184 0.0 0.0 0.00 0.00 0.00 69 1016.7
20260830120500 61 192 0.0 0.0 0.00 0.00 0.00 66 1016.9
20260830115501 60 194 0.0 0.0 0.00 0.00 0.00 64 1016.9
20260830114501 60 286 0.0 0.0 0.00 0.00 0.00 62 1017.1
20260830113939 59 207 0.0 0.0 0.00 0.00 0.00 59 1017.0
20260830112502 59 246 0.0 0.0 0.00 0.00 0.00 57 1017.1
20260830111501 58 238 0.0 0.0 0.00 0.00 0.00 56 1017.1
20260830110500 57 201 0.0 0.0 0.00 0.00 0.00 56 1016.9
20260830105501 56 244 0.0 0.0 0.00 0.00 0.00 56 1016.9
20260830104501 55 221 0.0 0.0 0.00 0.00 0.00 56 1017.1
20260830103931 55 237 0.0 0.0 0.00 0.00 0.00 56 1017.3
20260830102457 54 223 0.0 0.0 0.00 0.00 0.00 57 1017.3
20260830101457 53 247 0.0 0.0 0.00 0.00 0.00 57 1017.3
20260830100457 53 247 0.0 0.0 0.00 0.00 0.00 57 1017.4
20260830095942 53 263 0.0 0.0 0.00 0.00 0.00 58 1017.5
20260830094456 53 292 0.0 0.0 0.00 0.00 0.00 58 1017.4
20260830093450 53 261 0.0 0.0 0.00 0.00 0.00 58 1017.4
20260830092450 53 250 0.0 0.0 0.00 0.00 0.00 58 1017.4
20260830091451 53 273 0.0 0.0 0.00 0.00 0.00 58 1017.5
20260830090451 53 246 0.0 0.0 0.00 0.00 0.00 58 1017.4
20260830085449 53 282 0.0 0.0 0.00 0.00 0.00 59 1017.4
20260830084449 53 282 0.0 0.0 0.00 0.00 0.00 58 1017.5
20260830083449 53 244 0.0 0.0 0.00 0.00 0.00 58 1017.4
20260830082449 53 257 0.0 0.0 0.00 0.00 0.00 58 1017.4
20260830081447 53 266 0.0 0.0 0.00 0.00 0.00 59 1017.4
20260830080447 53 277 0.0 0.0 0.00 0.00 0.00 59 1017.5
20260830075447 53 284 0.0 0.0 0.00 0.00 0.00 59 1017.5
20260830074447 53 286 0.0 0.0 0.00 0.00 0.00 59 1017.6
20260830073447 53 286 0.0 0.0 0.00 0.00 0.00 59 1017.6
20260830072447 53 286 0.0 0.0 0.00 0.00 0.00 59 1017.5
20260830071446 53 296 0.0 0.0 0.00 0.00 0.00 59 1017.5
20260830070447 53 281 0.0 0.0 0.00 0.00 0.00 60 1017.5
20260830065447 53 281 0.0 0.0 0.00 0.00 0.00 60 1017.6
20260830064442 52 281 0.0 0.0 0.00 0.00 0.00 61 1017.7